| time (UTC) | temp F | wind direction | speed MPH | gust MPH | rain 1hr in | rain 24hr in | rain mn in | humidity % | barometer mb |
| 20260901040053 | 65 | 252 | 2.0 | 4.0 | 0.00 | 0.37 | 0.00 | 91 | 960.9 |
| 20260901034557 | 65 | 248 | 3.0 | 5.0 | 0.00 | 0.37 | 0.37 | 91 | 961.0 |
| 20260901033049 | 65 | 245 | 3.0 | 5.0 | 0.00 | 0.37 | 0.37 | 91 | 961.1 |
| 20260901031553 | 65 | 243 | 2.0 | 4.0 | 0.00 | 0.37 | 0.37 | 91 | 961.1 |
| 20260901030049 | 65 | 234 | 2.0 | 5.0 | 0.01 | 0.37 | 0.37 | 91 | 961.1 |
| 20260901024548 | 65 | 223 | 2.0 | 5.0 | 0.01 | 0.37 | 0.37 | 91 | 961.0 |
| 20260901023047 | 65 | 225 | 3.0 | 6.0 | 0.02 | 0.37 | 0.37 | 91 | 961.2 |
| 20260901021607 | 65 | 219 | 2.0 | 4.0 | 0.05 | 0.37 | 0.37 | 91 | 961.4 |
| 20260901020104 | 65 | 236 | 2.0 | 5.0 | 0.04 | 0.36 | 0.36 | 91 | 961.5 |
| 20260901014549 | 65 | 229 | 3.0 | 5.0 | 0.05 | 0.36 | 0.36 | 91 | 961.6 |
| 20260901013046 | 65 | 234 | 2.0 | 5.0 | 0.04 | 0.35 | 0.35 | 91 | 961.7 |
| 20260901011545 | 65 | 212 | 2.0 | 4.0 | 0.01 | 0.32 | 0.32 | 91 | 961.6 |
| 20260901010045 | 65 | 214 | 1.0 | 5.0 | 0.02 | 0.32 | 0.32 | 91 | 961.4 |
| 20260901004545 | 65 | 229 | 1.0 | 6.0 | 0.01 | 0.31 | 0.31 | 91 | 961.4 |
| 20260901003050 | 65 | 227 | 3.0 | 5.0 | 0.01 | 0.31 | 0.31 | 91 | 961.2 |
| 20260901001557 | 65 | 199 | 2.0 | 5.0 | 0.01 | 0.31 | 0.31 | 91 | 961.1 |
| 20260901000048 | 65 | 209 | 2.0 | 5.0 | 0.00 | 0.30 | 0.30 | 91 | 961.2 |
| 20260831234556 | 65 | 196 | 2.0 | 5.0 | 0.00 | 0.30 | 0.30 | 91 | 961.2 |
| 20260831233046 | 65 | 207 | 1.0 | 5.0 | 0.00 | 0.30 | 0.30 | 91 | 961.2 |
| 20260831231541 | 65 | 214 | 2.0 | 5.0 | 0.01 | 0.30 | 0.30 | 91 | 961.4 |
| 20260831230037 | 65 | 204 | 2.0 | 4.0 | 0.02 | 0.30 | 0.30 | 91 | 961.5 |
| 20260831224534 | 65 | 207 | 1.0 | 4.0 | 0.04 | 0.30 | 0.30 | 91 | 961.7 |
| 20260831223034 | 65 | 216 | 1.0 | 4.0 | 0.04 | 0.30 | 0.30 | 91 | 961.9 |
| 20260831221532 | 65 | 216 | 0.0 | 4.0 | 0.04 | 0.28 | 0.28 | 91 | 962.1 |
| 20260831220031 | 65 | 238 | 2.0 | 7.0 | 0.05 | 0.28 | 0.28 | 90 | 962.2 |
| 20260831214530 | 65 | 242 | 3.0 | 5.0 | 0.04 | 0.26 | 0.26 | 90 | 962.3 |
| 20260831213035 | 65 | 209 | 2.0 | 5.0 | 0.04 | 0.26 | 0.26 | 90 | 962.2 |
| 20260831211530 | 65 | 206 | 0.0 | 4.0 | 0.03 | 0.25 | 0.25 | 90 | 962.5 |
| 20260831210030 | 65 | 198 | 2.0 | 5.0 | 0.01 | 0.23 | 0.23 | 90 | 962.2 |
| 20260831204526 | 65 | 197 | 2.0 | 4.0 | 0.01 | 0.22 | 0.22 | 90 | 962.3 |
| 20260831203025 | 65 | 177 | 1.0 | 4.0 | 0.02 | 0.22 | 0.22 | 90 | 962.4 |
| 20260831201535 | 64 | 204 | 1.0 | 6.0 | 0.02 | 0.22 | 0.22 | 90 | 962.4 |
| 20260831200027 | 64 | 194 | 2.0 | 5.0 | 0.02 | 0.22 | 0.22 | 90 | 962.4 |
| 20260831194535 | 64 | 186 | 2.0 | 5.0 | 0.01 | 0.21 | 0.21 | 90 | 962.6 |
| 20260831193121 | 64 | 186 | 2.0 | 5.0 | 0.00 | 0.20 | 0.20 | 90 | 962.6 |
| 20260831191520 | 64 | 171 | 4.0 | 7.0 | 0.00 | 0.20 | 0.20 | 90 | 962.6 |
| 20260831190018 | 64 | 166 | 2.0 | 8.0 | 0.00 | 0.20 | 0.20 | 90 | 962.9 |
| 20260831184523 | 64 | 177 | 2.0 | 5.0 | 0.01 | 0.20 | 0.20 | 90 | 962.9 |
| 20260831183015 | 64 | 138 | 0.0 | 6.0 | 0.02 | 0.20 | 0.20 | 90 | 963.2 |
| 20260831181519 | 64 | 188 | 2.0 | 6.0 | 0.04 | 0.20 | 0.20 | 89 | 963.5 |
| 20260831180013 | 64 | 198 | 2.0 | 6.0 | 0.06 | 0.20 | 0.20 | 89 | 963.5 |
| 20260831174511 | 64 | 195 | 2.0 | 7.0 | 0.08 | 0.19 | 0.19 | 89 | 963.7 |
| 20260831173010 | 64 | 175 | 3.0 | 7.0 | 0.08 | 0.18 | 0.18 | 89 | 963.8 |
| 20260831171510 | 65 | 171 | 0.0 | 3.0 | 0.11 | 0.16 | 0.16 | 88 | 963.9 |
| 20260831170011 | 65 | 190 | 0.0 | 4.0 | 0.13 | 0.14 | 0.14 | 88 | 964.1 |
| 20260831164508 | 65 | 190 | 0.0 | 1.0 | 0.11 | 0.11 | 0.11 | 88 | 964.2 |
| 20260831163011 | 65 | 190 | 0.0 | 0.0 | 0.10 | 0.10 | 0.10 | 87 | 964.2 |
| 20260831161512 | 65 | 190 | 0.0 | 2.0 | 0.05 | 0.05 | 0.05 | 86 | 964.3 |
| 20260831160008 | 65 | 190 | 0.0 | 1.0 | 0.01 | 0.01 | 0.01 | 85 | 964.5 |
| 20260831154513 | 65 | 190 | 0.0 | 1.0 | 0.00 | 0.00 | 0.00 | 85 | 964.4 |
| 20260831153006 | 65 | 196 | 0.0 | 5.0 | 0.00 | 0.00 | 0.00 | 85 | 964.4 |
| 20260831151505 | 65 | 198 | 1.0 | 5.0 | 0.00 | 0.00 | 0.00 | 85 | 964.3 |
| 20260831150009 | 65 | 169 | 1.0 | 4.0 | 0.00 | 0.00 | 0.00 | 86 | 964.2 |
| 20260831144614 | 64 | 118 | 0.0 | 2.0 | 0.00 | 0.00 | 0.00 | 87 | 964.2 |
| 20260831143055 | 64 | 165 | 0.0 | 4.0 | 0.00 | 0.00 | 0.00 | 88 | 964.3 |
| 20260831141553 | 64 | 124 | 0.0 | 3.0 | 0.00 | 0.00 | 0.00 | 90 | 963.9 |
| 20260831140051 | 63 | 124 | 1.0 | 4.0 | 0.00 | 0.00 | 0.00 | 90 | 964.3 |
| 20260831134556 | 63 | 177 | 1.0 | 3.0 | 0.00 | 0.00 | 0.00 | 90 | 964.3 |
| 20260831133047 | 62 | 193 | 1.0 | 5.0 | 0.00 | 0.00 | 0.00 | 91 | 964.3 |
| 20260831131547 | 62 | 188 | 1.0 | 5.0 | 0.00 | 0.00 | 0.00 | 90 | 964.5 |
| 20260831130050 | 62 | 248 | 1.0 | 3.0 | 0.00 | 0.00 | 0.00 | 91 | 964.4 |
| 20260831124544 | 61 | 232 | 0.0 | 4.0 | 0.00 | 0.00 | 0.00 | 91 | 964.2 |
| 20260831123042 | 60 | 245 | 0.0 | 2.0 | 0.00 | 0.00 | 0.00 | 90 | 964.3 |
| 20260831121539 | 60 | 246 | 0.0 | 1.0 | 0.00 | 0.00 | 0.00 | 90 | 964.5 |
| 20260831120037 | 60 | 246 | 0.0 | 0.0 | 0.00 | 0.00 | 0.00 | 90 | 964.5 |
| 20260831114535 | 59 | 246 | 0.0 | 0.0 | 0.00 | 0.00 | 0.00 | 90 | 964.3 |
| 20260831113031 | 59 | 246 | 0.0 | 1.0 | 0.00 | 0.00 | 0.00 | 90 | 964.3 |
| 20260831111540 | 59 | 246 | 0.0 | 2.0 | 0.00 | 0.00 | 0.00 | 90 | 964.3 |
| 20260831110030 | 59 | 246 | 0.0 | 1.0 | 0.00 | 0.00 | 0.00 | 90 | 964.0 |
| 20260831104530 | 59 | 245 | 0.0 | 1.0 | 0.00 | 0.00 | 0.00 | 90 | 963.9 |
| 20260831103027 | 59 | 245 | 0.0 | 3.0 | 0.00 | 0.00 | 0.00 | 90 | 963.7 |
| 20260831101526 | 59 | 245 | 1.0 | 3.0 | 0.00 | 0.00 | 0.00 | 90 | 963.8 |
| 20260831100025 | 58 | 284 | 0.0 | 2.0 | 0.00 | 0.00 | 0.00 | 90 | 963.8 |
| 20260831094526 | 58 | 286 | 0.0 | 1.0 | 0.00 | 0.00 | 0.00 | 90 | 963.7 |
| 20260831093027 | 58 | 286 | 0.0 | 1.0 | 0.00 | 0.00 | 0.00 | 90 | 963.7 |
| 20260831091522 | 58 | 286 | 0.0 | 2.0 | 0.00 | 0.00 | 0.00 | 90 | 964.0 |
| 20260831090020 | 59 | 273 | 0.0 | 1.0 | 0.00 | 0.00 | 0.00 | 90 | 963.9 |
| 20260831084532 | 60 | 273 | 0.0 | 1.0 | 0.00 | 0.00 | 0.00 | 90 | 963.7 |
| 20260831083017 | 60 | 273 | 1.0 | 2.0 | 0.00 | 0.00 | 0.00 | 90 | 963.8 |
| 20260831081523 | 60 | 273 | 0.0 | 0.0 | 0.00 | 0.00 | 0.00 | 90 | 963.6 |
| 20260831080016 | 60 | 273 | 0.0 | 0.0 | 0.00 | 0.00 | 0.00 | 90 | 963.6 |
| 20260831074531 | 60 | 273 | 0.0 | 0.0 | 0.00 | 0.00 | 0.00 | 90 | 963.7 |
| 20260831073038 | 60 | 273 | 1.0 | 2.0 | 0.00 | 0.00 | 0.00 | 90 | 963.6 |
| 20260831071513 | 60 | 273 | 0.0 | 0.0 | 0.00 | 0.00 | 0.00 | 90 | 963.6 |
| 20260831070016 | 60 | 273 | 0.0 | 0.0 | 0.00 | 0.00 | 0.00 | 89 | 963.8 |
| 20260831064526 | 60 | 273 | 0.0 | 0.0 | 0.00 | 0.00 | 0.00 | 89 | 963.7 |
| 20260831063016 | 60 | 273 | 0.0 | 0.0 | 0.00 | 0.00 | 0.00 | 89 | 963.8 |
| 20260831061508 | 61 | 273 | 0.0 | 0.0 | 0.00 | 0.00 | 0.00 | 89 | 963.9 |
| 20260831060007 | 61 | 273 | 0.0 | 0.0 | 0.00 | 0.00 | 0.00 | 89 | 964.2 |
| 20260831054505 | 61 | 273 | 0.0 | 0.0 | 0.00 | 0.00 | 0.00 | 89 | 964.3 |
| 20260831053015 | 61 | 273 | 0.0 | 0.0 | 0.00 | 0.00 | 0.00 | 89 | 964.3 |
| 20260831051506 | 61 | 273 | 0.0 | 0.0 | 0.00 | 0.00 | 0.00 | 89 | 964.2 |
| 20260831050009 | 61 | 273 | 0.0 | 0.0 | 0.00 | 0.00 | 0.00 | 88 | 964.2 |
| 20260831044502 | 62 | 273 | 0.0 | 2.0 | 0.00 | 0.00 | 0.00 | 88 | 964.3 |
| 20260831043103 | 62 | 273 | 0.0 | 1.0 | 0.00 | 0.00 | 0.00 | 88 | 964.2 |
| 20260831041607 | 62 | 273 | 0.0 | 2.0 | 0.00 | 0.00 | 0.00 | 87 | 964.3 |